Вернуться в каталог

FENGYUN 1C DEB

АктивенSSO
NORAD 32130·DEBRIS·🇨🇳 China

Запущен May 10, 1999 с Taiyuan Satellite Launch Center

Loading…

Ближайшие Пролёты (ближайшие 24 часа)

TLE

СвежийSource: Space-Track

Эпоха: Sep 14, 2026, 06:01 UTC

1 32130U 99025CRY 26257.25130612  .00000742  00000-0  25089-3 0  9996
2 32130  98.9223  79.0468 0081123 236.8713 122.4670 14.38218715  1871

Отслеживайте FENGYUN 1C DEB в реальном времени с AllMySat

Download on the App Store